Weather History for Sedalia, MO

Change the Weather History Date:

Tuesday, January 1, 2013

  Actual Average Record
Temperature  
Mean Temperature 18 °F 32 °F  
Max Temperature 26 °F 40 °F 68 °F (1952)
Min Temperature 9 °F 23 °F -18 °F (1974)
Degree Days  
Heating Degree Days 47 33  
Month to date heating degree days 47 33  
Since 1 July heating degree days 1711 1814  
Cooling Degree Days 0 0  
Month to date cooling degree days 0 0  
Year to date cooling degree days 0 0  
Moisture  
Dew Point 13 °F    
Average Humidity 77    
Maximum Humidity 92    
Minimum Humidity 62    
Precipitation  
Precipitation 0.00 in 0.05 in 1.34 in (1985)
Month to date precipitation 0.00 0.05  
Year to date precipitation 0.00 0.05  
Sea Level Pressure  
Sea Level Pressure 30.28 in    
Wind  
Wind Speed 7 mph (NNW)    
Max Wind Speed 15 mph    
Max Gust Speed 18 mph    
Visibility 10 miles    
Events      
T = Trace of Precipitation, MM = Missing Value Source: NWS Daily Summary

Daily Weather History Graph

Daily Weather History Graph

Search for Another Location

Airport:

Trip Planner

Search our weather history database for the weather conditions in past years. The results will help you decide how hot, cold, wet, or windy it might be!

Date:

Astronomy

Jan. 01, 2013 Rise Set
Actual Time 7:30 AM CST 5:02 PM CST
Civil Twilight 7:01 AM CST 5:31 PM CST
Nautical Twilight 6:27 AM CST 6:05 PM CST
Astronomical Twilight 5:55 AM CST 6:37 PM CST
Moon 9:30 PM CST (1/1) 9:46 AM CST (1/1)
Length of Visible Light 10h 30m
Length of Day
9h 31m
Waning Gibbous, 83% of the Moon is Illuminated
Jan 1
Waning Gibbous
Jan 4
Last Quarter
Jan 11
New
Jan 18
First Quarter
Jan 26
Full

Hourly Weather History & Observations

Time (CST) Temp. Windchill Dew Point Humidity Pressure Visibility Wind Dir Wind Speed Gust Speed Precip Events Conditions
12:53 AM 24.1 °F 12.5 °F 19.0 °F 81% 30.19 in 10.0 mi North 12.7 mph - N/A   Overcast
1:53 AM 24.1 °F 13.7 °F 19.0 °F 81% 30.19 in 10.0 mi NNE 10.4 mph - N/A   Overcast
2:53 AM 23.0 °F 12.4 °F 18.0 °F 81% 30.22 in 10.0 mi North 10.4 mph - N/A   Overcast
3:53 AM 21.9 °F 11.7 °F 18.0 °F 85% 30.22 in 10.0 mi North 9.2 mph - N/A   Overcast
4:53 AM 21.0 °F 8.6 °F 16.0 °F 81% 30.20 in 10.0 mi North 12.7 mph - N/A   Overcast
5:53 AM 18.0 °F 5.4 °F 14.0 °F 84% 30.19 in 10.0 mi North 11.5 mph - N/A   Clear
6:30 AM 19.4 °F - 12.2 °F 74% 30.23 in 10.0 mi Calm Calm - N/A   Partly Cloudy
6:53 AM 18.0 °F - 14.0 °F 84% 30.28 in 10.0 mi Calm Calm - N/A   Overcast
7:53 AM 17.1 °F 7.6 °F 14.0 °F 88% 30.29 in 10.0 mi NNW 6.9 mph - N/A   Overcast
8:53 AM 15.1 °F 4.2 °F 10.9 °F 84% 30.31 in 9.0 mi NNW 8.1 mph - N/A   Partly Cloudy
9:53 AM 18.0 °F 6.1 °F 12.0 °F 78% 30.30 in 10.0 mi North 10.4 mph - N/A   Clear
10:53 AM 19.9 °F 11.1 °F 12.0 °F 71% 30.33 in 10.0 mi North 6.9 mph - N/A   Clear
11:53 AM 19.9 °F 12.1 °F 12.0 °F 71% 30.30 in 10.0 mi NNW 5.8 mph - N/A   Clear
12:53 PM 21.0 °F 11.4 °F 12.0 °F 68% 30.29 in 10.0 mi NNW 8.1 mph - N/A   Clear
1:53 PM 21.0 °F 12.4 °F 12.0 °F 68% 30.29 in 10.0 mi NW 6.9 mph - N/A   Overcast
2:53 PM 21.9 °F 12.5 °F 10.9 °F 63% 30.30 in 10.0 mi North 8.1 mph - N/A   Overcast
3:53 PM 21.0 °F 11.4 °F 10.9 °F 65% 30.30 in 10.0 mi North 8.1 mph - N/A   Overcast
4:53 PM 19.0 °F 11.1 °F 10.0 °F 68% 30.30 in 10.0 mi North 5.8 mph - N/A   Scattered Clouds
5:53 PM 18.0 °F - 10.9 °F 74% 30.31 in 10.0 mi Calm Calm - N/A   Clear
6:53 PM 17.1 °F - 10.0 °F 74% 30.30 in 10.0 mi Calm Calm - N/A   Clear
7:53 PM 16.0 °F - 10.0 °F 77% 30.30 in 10.0 mi Calm Calm - N/A   Clear
8:53 PM 16.0 °F 8.8 °F 10.0 °F 77% 30.33 in 10.0 mi SW 4.6 mph - N/A   Clear
9:53 PM 12.9 °F - 10.0 °F 88% 30.30 in 7.0 mi Calm Calm - N/A   Clear
10:53 PM 12.0 °F 2.7 °F 9.0 °F 88% 30.31 in 9.0 mi SW 5.8 mph - N/A   Clear
11:53 PM 10.9 °F 2.9 °F 8.1 °F 88% 30.30 in 5.0 mi SW 4.6 mph - N/A   Clear